Regional Weather Roundup
Issued by NWS

Home | Current Version | Previous Version | Graphics & Text | Print | Product List | Glossary On
Versions: 1 2 3 4 5 6 7 8 9 10 11 12 13 14 15 16 17 18 19 20 21 22 23 24 25 26 27 28
000
ASUS45 KCYS 222310
RWRWY

WYOMING REGIONAL WEATHER ROUNDUP
NATIONAL WEATHER SERVICE CHEYENNE WY
400 PM MST SUN JAN 22 2017

NOTE:  "FAIR" INDICATES FEW OR NO CLOUDS BELOW 12,000 FEET
WITH NO SIGNIFICANT WEATHER AND/OR OBSTRUCTIONS TO VISIBILITY.

WYZ001-230000-
YELLOWSTONE NATIONAL PARK

CITY           SKY/WX    TMP DP  RH WIND       PRES   REMARKS
LK YELLOWSTONE   N/A     22  15  75 VRB7      29.75R WCI  13
W YELLOWSTONE  NOT AVBL

$$
WYZ002>013-054>058-071-098>099-230000-
NORTHERN WYOMING

CITY           SKY/WX    TMP DP  RH WIND       PRES   REMARKS
JACKSON        PTSUNNY   28  19  69 S6        29.77F WCI  22
CODY           FAIR      32  21  64 SE14      29.75S WCI  22
GREYBULL       FAIR      17  11  77 NW8       29.79F WCI   7
WORLAND        FAIR      30  20  66 N3        29.77F
SHERIDAN       FAIR      36  23  59 SE15      29.77F WCI  27
BUFFALO        FAIR      35  22  58 CALM      29.77F
GILLETTE       FAIR      39  23  52 S8        29.79F WCI  33
HULETT         FAIR      36  23  60 SW10      29.82F WCI  28
NEWCASTLE      FAIR      36  21  55 CALM      29.84F

$$
WYZ014>020-022>026-101>103-230000-
CENTRAL WYOMING

CITY           SKY/WX    TMP DP  RH WIND       PRES   REMARKS
BIG PINEY      CLOUDY    16  11  80 CALM      29.84F
PINEDALE       FLURRIES  18  14  86 SE7       29.86R WCI   8
DUBOIS         NOT AVBL
LANDER         FAIR      22  14  71 SE5       29.77S WCI  16
RIVERTON       FAIR      21  13  71 W7        29.79R WCI  12
CASPER         FAIR      32  16  51 SW16      29.81F WCI  21
DOUGLAS        FAIR      38  13  35 W14       29.83F WCI  30

$$
WYZ021-027>030-104>119-230000-
SOUTHERN WYOMING

CITY           SKY/WX    TMP DP  RH WIND       PRES   REMARKS
EVANSTON       CLOUDY    26  14  60 S5        29.80S WCI  20
ROCK SPRINGS   FAIR      25  15  66 SE8       29.83S WCI  16
RAWLINS        FAIR      26  13  57 S12       29.86F WCI  16
LARAMIE        FAIR      25  13  60 SW12      29.84F WCI  14
CHEYENNE       FAIR      35   8  32 NW13G23   29.85F WCI  26
TORRINGTON     FAIR      43  13  29 W13G22    29.86F

$$




USA.gov is the U.S. government's official web portal to all federal, state and local government web resources and services.